Regional Weather Roundup
Issued by NWS Sterling, VA

Home | Current Version | Previous Version | Text Only | Print | Product List | Glossary Off
Versions: 1 2 3 4 5 6 7 8 9 10 11 12 13 14 15 16 17 18 19 20 21 22 23 24 25 26 27 28

000
ASUS41 KLWX 290211
RWRLWX

REGIONAL WEATHER ROUNDUP
NATIONAL WEATHER SERVICE BALTIMORE MD/WASHINGTON DC
1000 PM EDT FRI APR 28 2017

Note: "FAIR" indicates few or no clouds below 12,000 feet
with no significant weather and/or obstructions to visibility.
 TC=TEMPERATURE CELSIUS

 * =Non NWS site. Station does not report precipitation (e.g. rain,
    snow, etc.), thunder, or fog.

DCZ001-MDZ009-015-VAZ040>042-051-053>054-290300-
WASHINGTON METRO

CITY           SKY/WX    TMP DP  RH WIND       PRES   REMARKS
WASHINGTON NAT MOCLDY    74  64  71 S3        30.03S
DULLES         PTCLDY    74  62  66 SE7       30.03R
ANDREWS AFB    CLEAR     71  62  73 S6        30.03S
FT BELVOIR     CLEAR     69  63  80 CALM      30.03R
QUANTICO       CLEAR     72  68  87 S5        30.03S
COLLEGE PARK*  CLEAR     74  62  67 CALM      30.03S
LEESBURG*      CLEAR     75  64  69 S8        30.04R
MANASSAS*        N/A     71  64  78 SW3       30.03R

$$

MDZ006>007-011-014-290300-
BALTIMORE METRO

CITY           SKY/WX    TMP DP  RH WIND       PRES   REMARKS
BWI AIRPORT    PTCLDY    72  61  68 SE5       30.03S
MD SCIENCE CTR   N/A     76  59  55 MISG      30.04R
MARTIN STATE   MOCLDY    70  64  83 CALM      30.05R
ANNAPOLIS      CLEAR     69  66  90 SE7       30.04R
FORT MEADE*    CLEAR     68  59  73 SE3       30.06S

$$

MDZ012-015-019>023-290300-
MARYLAND EASTERN SHORE

CITY           SKY/WX    TMP DP  RH WIND       PRES   REMARKS
OCEAN CITY     FOG       65  65 100 VRB3      30.09R VSB 3/4
SALISBURY      CLEAR     71  69  93 S7        30.08R
BAY BRIDGE AP* CLEAR     72  64  78 SE6       30.04F
CAMBRIDGE*     CLEAR     72  68  88 SE8       30.05S
EASTON*        CLEAR     73  63  68 S5        30.08S

$$

MDZ017>025-290300-
SOUTHERN MARYLAND

CITY           SKY/WX    TMP DP  RH WIND       PRES   REMARKS
PATUXENT RIVER PTCLDY    72  71  97 SE9       30.04S
ST INIGOES     CLEAR     73  69  87 SE8       30.04R
LEONARDTOWN*   CLEAR     70  66  88 SE6       30.05F

$$

MDZ003>005-290300-
NORTH CENTRAL MARYLAND

CITY           SKY/WX    TMP DP  RH WIND       PRES   REMARKS
FREDERICK*     NOT AVBL
HAGERSTOWN APT MOCLDY    76  60  57 SE10      30.01R
WESTMINSTER*   CLEAR     73  61  64 SE7       30.05R

$$

MDZ501>502-290300-
WESTERN MARYLAND

CITY           SKY/WX    TMP DP  RH WIND       PRES   REMARKS
OAKLAND*       MOCLDY    63  50  63 E7        30.05F
CUMBERLAND*    CLOUDY    73  59  60 CALM      30.00F

$$

VAZ025>031-290300-
SHENANDOAH VALLEY

CITY           SKY/WX    TMP DP  RH WIND       PRES   REMARKS
WINCHESTER*    CLOUDY    70  59  68 SE5       30.01S
FRONT ROYAL*   PTCLDY    73  61  64 S3        30.00F
LURAY*         CLEAR     66  59  77 S3        30.03R
NEW MARKET*    PTCLDY    71  59  66 SW3       30.02R
STAUNTON*      CLEAR     71  58  64 S5        30.06S
WAYNESBORO*    PTCLDY    71  61  70 S6        30.06R

$$

WVZ021-048>050-054>055-290300-
EASTERN WEST VIRGINIA PANHANDLE

CITY           SKY/WX    TMP DP  RH WIND       PRES   REMARKS
MARTINSBURG    CLOUDY    72  59  63 SE5       29.99S
PETERSBURG*    MOCLDY    72  57  58 SE5       29.99S

$$

VAZ036>039-050-290300-
CENTRAL FOOTHILLS

CITY           SKY/WX    TMP DP  RH WIND       PRES   REMARKS
CHARLOTTESVILL PTCLDY    76  62  62 S7        30.02R
CULPEPER*      CLEAR     69  64  85 CALM      30.03R
ORANGE*        CLEAR     72  61  68 S3        30.02R
GORDONSVILLE*  PTCLDY    69  64  85 CALM      30.02S
WARRENTON*     CLEAR     71  60  68 SE5       30.02R

$$

VAZ055>057-290300-
NORTH AND CENTRAL PIEDMONT

CITY           SKY/WX    TMP DP  RH WIND       PRES   REMARKS
FREDERICKSBRG* CLEAR     71  65  80 SE3       30.02R
STAFFORD*      CLEAR     65  64  97 CALM      30.07R

$$

NCZ024-NYZ072-PAZ021-071-VAZ022-071-290300-
OTHER REGIONAL OBSERVATIONS

CITY           SKY/WX    TMP DP  RH WIND       PRES   REMARKS
NEW YORK CITY  PTCLDY    76  41  28 VRB5      30.07R
PHILADELPHIA   PTCLDY    72  57  59 S8        30.06R
PITTSBURGH     CLOUDY    64  47  53 NE5       30.04R
ROANOKE        PTCLDY    76  63  64 S6        30.06S
RICHMOND       PTCLDY    76  69  79 SE8       30.04R
RALEIGH        PTCLDY    80  65  59 SW12      30.08R

$$

ANZ530>537-290300-
MARINE OBSERVATIONS

STATION/POSITION TIME  TEMP    WIND        PRES
                       AIR SEA DIR/SP/G
                 (UTC) (F)     (DEG/KT/KT) (MB)
THOMAS PT LIGHT  0100   67 62  180/ 11/ 12   N/A
BALT KEY BRIDGE  0130   73     160/ 11/ 11 1017.0R
COVE POINT       0130   69     180/ 10/ 11 1018.3R
LEWISETTA        0130   74 69  190/  6/  7 1017.3R
SOLOMONS ISLAND  0130   69 64  140/  4/  5   N/A
PINEY POINT      0130          140/  9/ 10   N/A

$$





USA.gov is the U.S. government's official web portal to all federal, state and local government web resources and services.